HJS-7B

导读 | 豆包AI

HJS-7B是中国于2025年9月16日发射的人造卫星,目前已在轨稳定运行超半年。作为中国航天事业的最新成果之一,该卫星进入预定轨道后将开展相关空间科学试验,助力我国深化空间探索研究,推动空间技术成果应用转化,进一步提升我国航天领域的综合实力,为后续同类卫星发射和空间项目开展积累宝贵经验,也将为全球空间科学发展贡献中国力量。

Basic Information
目录编号:
65618
目录名称:
HJS-7B
国际标识:
2025-209B
轨道中心:
EARTH
卫星名称:
HJS-7B
卫星全名:
HJS-7B
卫星状态:
在轨 (已飞行226 天)
发射日期:
2025-09-16 UTC
国别 :
中国 (CN)
星等 :
--
Orbit Information
数据来源 国际轨道数据 AOE轨道数据
星历时间 2026-04-30T17:28:57+0800
12小时前
查看轨道信息
2026-04-30T08:00:00+0800
22小时前
查看轨道信息
半长轴 7481.987km 7481.991km
偏心率 0.0001493 0.0001977
轨道倾角 49.998° 49.999°
近地点辐角 304.874° 317.314°
升交点赤经 174.373° 175.825°
平近点角 55.200° 293.503°
近地点 1102.732km 1102.374km
远地点 1104.968km 1105.334km
周期 107.346分钟 107.346分钟
每日圈数 13.41459 13.414579
Detailed Information
使用方式:
暂无
2D Orbit Map
3D Orbit Map
Orbit Altitude Analysis Chart
Orbit Inclination Analysis Chart
Orbit Comprehensive Analysis Chart
View Comprehensive Chart